Minot AFB, ND

10:51 AM CDT on July 21, 2017 (GMT -0500)
Minot Air Force Base

Weather History for KMIB - February, 2014

Change the Weather History Date:

Sunday, February 9, 2014

  Actual Average Record
Temperature  
Mean Temperature -8 °F -  
Max Temperature -1 °F 21 °F 37 °F (2016)
Min Temperature -15 °F 4 °F -17 °F (2007)
Degree Days  
Heating Degree Days 73    
Moisture  
Dew Point -14 °F    
Average Humidity 74    
Maximum Humidity 78    
Minimum Humidity 68    
Precipitation  
Precipitation 0.00 in - - ()
Sea Level Pressure  
Sea Level Pressure 30.47 in    
Wind  
Wind Speed 12 mph (WNW)    
Max Wind Speed 20 mph    
Max Gust Speed -    
Visibility 10 miles    
Events Snow    
Averages and records for this station are not official NWS values.
T = Trace of Precipitation, MM = Missing Value Source: NWS Daily Summary

Daily Weather History Graph

Daily Weather History Graph

Search for Another Location

Airport or City:

Trip Planner

Search our weather history database for the weather conditions in past years. The results will help you decide how hot, cold, wet, or windy it might be!

Date:

Astronomy

Feb. 09, 2014 Rise Set
Actual Time 8:02 AM CST 5:57 PM CST
Civil Twilight 7:29 AM CST 6:30 PM CST
Nautical Twilight 6:52 AM CST 7:07 PM CST
Astronomical Twilight 6:16 AM CST 7:43 PM CST
Moon 1:30 PM CST (2/9) 4:17 AM CST (2/9)
Length of Visible Light 11h 00m
Length of Day
9h 55m
Waxing Gibbous, 77% of the Moon is Illuminated
Feb 9
Waxing Gibbous
Feb 14
Full
Feb 22
Last Quarter
Mar 1
New
Mar 8
First Quarter

Hourly Weather History & Observations

Time (CST) Temp. Windchill Dew Point Humidity Pressure Visibility Wind Dir Wind Speed Gust Speed Precip Events Conditions
12:58 AM -7.1 °F -25.0 °F -13.4 °F 74% 30.46 in 10.0 mi WNW 10.4 mph - N/A   Clear
1:28 AM -7.6 °F -25.7 °F -13.0 °F 77% 30.29 in 10.0 mi WNW 10.4 mph - N/A   Scattered Clouds
1:48 AM -5.8 °F -23.4 °F -13.0 °F 71% 30.29 in 10.0 mi WNW 10.4 mph - N/A   Mostly Cloudy
1:53 AM -5.8 °F -23.4 °F -13.0 °F 71% 30.29 in 10.0 mi WNW 10.4 mph - N/A   Scattered Clouds
1:58 AM -6.3 °F -25.0 °F -12.8 °F 73% 30.45 in 10.0 mi WNW 11.5 mph - N/A   Partly Cloudy
2:58 AM -7.4 °F -26.4 °F -13.2 °F 76% 30.45 in 10.0 mi West 11.5 mph - N/A   Clear
3:58 AM -8.7 °F -27.0 °F -14.1 °F 77% 30.47 in 10.0 mi West 10.4 mph - N/A   Scattered Clouds
4:03 AM -9.4 °F -27.9 °F -14.8 °F 77% 30.30 in 10.0 mi West 10.4 mph - N/A   Mostly Cloudy
4:48 AM -7.6 °F -28.3 °F -13.0 °F 77% 30.29 in 9.0 mi WNW 13.8 mph - N/A Snow Light Snow
4:58 AM -7.6 °F -27.5 °F -12.8 °F 78% 30.46 in 10.0 mi WNW 12.7 mph - 0.00 in Snow Light Snow
5:58 AM -9.4 °F -28.9 °F -14.6 °F 78% 30.46 in 10.0 mi WNW 11.5 mph - 0.00 in   Clear
6:58 AM -10.8 °F -31.6 °F -16.1 °F 78% 30.48 in 10.0 mi WNW 12.7 mph - N/A   Clear
7:58 AM -11.9 °F -32.0 °F -17.5 °F 76% 30.48 in 10.0 mi WNW 11.5 mph - N/A   Clear
8:58 AM -11.4 °F -32.3 °F -17.5 °F 74% 30.51 in 10.0 mi West 12.7 mph - N/A   Clear
9:58 AM -9.2 °F -32.6 °F -15.5 °F 74% 30.51 in 10.0 mi NW 17.3 mph - N/A   Clear
10:58 AM -6.0 °F -27.7 °F -13.2 °F 71% 30.52 in 10.0 mi NW 16.1 mph - N/A   Clear
11:58 AM -4.7 °F -26.1 °F -12.3 °F 70% 30.53 in 10.0 mi NW 16.1 mph - N/A   Clear
12:58 PM -3.3 °F -24.2 °F -11.2 °F 69% 30.53 in 10.0 mi NW 16.1 mph - N/A   Clear
1:58 PM -2.4 °F -23.7 °F -10.7 °F 68% 30.50 in 10.0 mi WNW 17.3 mph - N/A   Clear
2:58 PM -1.8 °F -24.2 °F -9.9 °F 68% 30.49 in 10.0 mi NW 19.6 mph - N/A   Clear
3:58 PM -1.7 °F -22.8 °F -9.8 °F 68% 30.51 in 10.0 mi NW 17.3 mph - 0.00 in   Clear
4:58 PM -2.6 °F -21.9 °F -10.5 °F 69% 30.52 in 10.0 mi NW 13.8 mph - N/A   Clear
5:58 PM -4.2 °F -22.3 °F -11.6 °F 71% 30.54 in 10.0 mi NW 11.5 mph - N/A   Clear
6:58 PM -7.1 °F -23.9 °F -13.5 °F 73% 30.56 in 10.0 mi NW 9.2 mph - N/A   Clear
7:58 PM -10.1 °F -26.5 °F -16.1 °F 75% 30.56 in 10.0 mi NW 8.1 mph - N/A   Clear
8:58 PM -11.6 °F -26.9 °F -17.3 °F 76% 30.56 in 10.0 mi WNW 6.9 mph - N/A   Clear
9:58 PM -13.7 °F -27.8 °F -19.3 °F 76% 30.56 in 10.0 mi WNW 5.8 mph - N/A   Clear
10:58 PM -15.3 °F -31.4 °F -20.9 °F 76% 30.56 in 10.0 mi WNW 6.9 mph - N/A   Clear
11:58 PM -15.9 °F -33.5 °F -21.3 °F 77% 30.56 in 10.0 mi West 8.1 mph - N/A   Clear